Temp
-11 -11 -10 -10 -11 -11 -11 -11 -12 -12 -12 -12 -12 -12 -12 -12 -12 -12 -12 -13 -13 -13 -13 -13 -13 -13 -13 -13 -13 -13 -13 -14 -14 -14 -15 -16 -16 -16 -16 -16 -16 -16 -17 -17
-11 -10 -10 -11 -11 -12 -12 -12 -12 -12 -12 -12 -12 -12 -12 -12 -12 -12 -13 -13 -13 -13 -14 -13 -13 -13 -13 -13 -13 -14 -14 -14 -14 -15 -15 -16 -16 -16 -16 -17 -17 -17 -17 -17
-11 -11 -12 -11 -12 -12 -12 -12 -11 -12 -12 -12 -12 -12 -13 -12 -12 -13 -13 -14 -14 -14 -14 -14 -14 -14 -14 -14 -14 -14 -14 -15 -15 -16 -16 -16 -16 -16 -17 -17 -17 -17 -17 -18
-11 -11 -11 -11 -12 -12 -12 -11 -12 -12 -12 -12 -12 -13 -13 -13 -13 -13 -14 -14 -14 -14 -14 -14 -14 -14 -14 -14 -14 -14 -15 -16 -16 -16 -16 -16 -17 -17 -17 -18 -18 -18 -18 -19
-11 -11 -12 -12 -12 -12 -12 -12 -12 -12 -12 -12 -13 -13 -13 -13 -13 -14 -14 -14 -14 -14 -14 -14 -14 -14 -14 -15 -15 -15 -15 -16 -16 -16 -16 -17 -17 -17 -17 -17 -18 -18 -19 -20
-12 -12 -12 -12 -12 -12 -12 -12 -11 -12 -12 -12 -13 -13 -13 -13 -13 -14 -14 -14 -14 -14 -14 -14 -14 -15 -15 -15 -15 -15 -16 -16 -16 -16 -17 -17 -17 -17 -17 -18 -19 -20 -20 -21
-12 -12 -12 -12 -12 -12 -12 -12 -12 -12 -13 -12 -13 -13 -13 -14 -14 -14 -14 -14 -14 -14 -14 -14 -15 -15 -15 -15 -15 -15 -16 -16 -16 -17 -17 -17 -17 -17 -18 -19 -20 -20 -21 -22
-12 -12 -12 -12 -12 -12 -12 -13 -13 -14 -13 -13 -13 -13 -14 -14 -14 -14 -14 -14 -14 -14 -15 -15 -15 -15 -16 -16 -16 -16 -17 -17 -17 -17 -17 -17 -17 -17 -19 -19 -20 -21 -21 -22
-12 -12 -12 -12 -13 -13 -13 -12 -12 -13 -13 -13 -13 -14 -14 -14 -14 -14 -14 -14 -14 -14 -15 -15 -16 -16 -16 -17 -17 -17 -17 -17 -17 -17 -17 -17 -17 -18 -19 -19 -20 -21 -22 -22
-12 -12 -13 -13 -13 -13 -13 -13 -13 -13 -13 -13 -14 -14 -14 -14 -15 -15 -14 -14 -15 -15 -16 -16 -16 -16 -17 -18 -18 -18 -18 -17 -17 -17 -17 -17 -17 -18 -18 -19 -20 -21 -22 -22
-12 -12 -12 -13 -13 -13 -13 -13 -13 -13 -14 -14 -14 -14 -14 -14 -15 -15 -15 -15 -15 -15 -16 -15 -16 -17 -18 -18 -18 -18 -17 -17 -17 -17 -17 -17 -18 -18 -18 -18 -19 -20 -21 -22
-11 -12 -12 -12 -12 -13 -13 -13 -13 -14 -14 -15 -15 -14 -14 -15 -15 -15 -15 -15 -15 -15 -15 -16 -17 -17 -18 -18 -18 -18 -17 -17 -18 -17 -17 -18 -18 -18 -18 -18 -19 -20 -20 -21
-12 -12 -12 -12 -13 -13 -14 -14 -15 -15 -15 -15 -15 -15 -15 -15 -15 -15 -15 -15 -15 -15 -15 -16 -17 -18 -17 -17 -17 -17 -17 -17 -17 -17 -17 -18 -18 -18 -18 -18 -19 -19 -20 -20
-12 -12 -13 -13 -13 -14 -14 -15 -15 -15 -15 -15 -15 -15 -15 -15 -15 -15 -15 -15 -15 -15 -16 -16 -17 -17 -17 -17 -17 -17 -17 -17 -17 -17 -17 -17 -17 -17 -17 -18 -18 -18 -19 -19
-12 -13 -13 -13 -14 -14 -14 -15 -15 -15 -15 -15 -15 -15 -15 -15 -15 -15 -15 -15 -15 -15 -16 -16 -17 -17 -17 -17 -17 -17 -17 -17 -17 -17 -17 -17 -17 -17 -17 -17 -17 -17 -18 -18
-13 -13 -14 -14 -14 -14 -14 -15 -15 -15 -15 -15 -15 -15 -15 -15 -15 -15 -16 -15 -15 -16 -16 -16 -16 -17 -17 -17 -17 -17 -17 -17 -17 -17 -17 -17 -16 -17 -17 -17 -17 -17 -17 -17
-13 -13 -13 -14 -14 -14 -14 -15 -15 -15 -15 -15 -15 -15 -15 -15 -15 -16 -16 -16 -15 -16 -16 -16 -16 -17 -17 -17 -17 -17 -17 -17 -17 -17 -17 -17 -16 -17 -17 -17 -17 -17 -17 -17
-13 -13 -14 -14 -14 -14 -15 -15 -15 -15 -15 -15 -15 -15 -15 -15 -15 -16 -16 -16 -16 -16 -16 -16 -17 -17 -17 -17 -17 -17 -17 -17 -17 -17 -17 -17 -16 -17 -17 -17 -17 -17 -18 -18
-13 -13 -14 -14 -14 -14 -14 -15 -14 -15 -15 -15 -15 -15 -15 -15 -15 -16 -16 -16 -16 -16 -16 -16 -17 -17 -17 -17 -17 -17 -17 -17 -16 -17 -17 -16 -16 -17 -17 -17 -17 -17 -17 -17
-13 -14 -14 -14 -14 -14 -14 -14 -14 -14 -15 -15 -15 -15 -16 -16 -16 -16 -16 -16 -16 -16 -16 -16 -17 -17 -17 -17 -17 -17 -17 -17 -16 -16 -16 -16 -16 -17 -17 -17 -17 -17 -17 -17
-13 -14 -14 -14 -14 -14 -14 -14 -15 -15 -15 -15 -15 -16 -16 -16 -16 -16 -16 -16 -16 -16 -16 -17 -17 -17 -17 -17 -17 -17 -17 -17 -16 -16 -16 -16 -16 -16 -17 -16 -16 -17 -17 -17
-13 -14 -14 -14 -14 -14 -14 -14 -15 -15 -15 -15 -16 -16 -16 -16 -16 -16 -16 -16 -16 -16 -16 -17 -17 -17 -17 -17 -17 -17 -17 -17 -16 -16 -16 -16 -16 -16 -16 -16 -16 -16 -16 -17
-14 -14 -14 -14 -14 -14 -14 -15 -15 -15 -15 -16 -15 -15 -16 -16 -16 -16 -16 -16 -17 -17 -16 -16 -17 -17 -17 -17 -17 -17 -17 -17 -17 -16 -16 -16 -16 -16 -16 -16 -16 -16 -16 -16
-14 -14 -14 -14 -14 -15 -15 -15 -15 -16 -16 -16 -16 -16 -16 -16 -16 -16 -16 -16 -16 -17 -17 -17 -17 -17 -17 -17 -17 -17 -17 -17 -17 -16 -16 -16 -16 -16 -16 -16 -16 -16 -16 -16
-14 -14 -14 -14 -15 -15 -15 -15 -16 -16 -16 -16 -16 -16 -16 -16 -16 -16 -16 -16 -16 -17 -17 -17 -17 -17 -17 -17 -17 -17 -17 -17 -17 -17 -16 -16 -16 -16 -16 -16 -16 -16 -16 -16
-14 -15 -15 -15 -15 -15 -15 -16 -16 -16 -16 -17 -16 -17 -17 -17 -17 -17 -16 -16 -16 -16 -17 -17 -17 -17 -17 -17 -17 -17 -17 -17 -17 -17 -17 -16 -16 -16 -16 -16 -16 -16 -16 -16
Height
5906 5907 5907 5907 5907 5906 5904 5902 5899 5897 5894 5891 5888 5884 5880 5875 5870 5866 5861 5857 5853 5850 5847 5843 5839 5834 5829 5824 5818 5812 5804 5797 5789 5782 5775 5769 5763 5757 5750 5743 5737 5730 5723 5717
5906 5905 5908 5907 5906 5903 5901 5899 5896 5893 5890 5888 5884 5880 5876 5871 5866 5861 5856 5853 5850 5847 5843 5839 5834 5829 5824 5818 5811 5804 5797 5790 5782 5775 5769 5764 5756 5748 5740 5733 5724 5717 5709 5702
5908 5906 5906 5905 5904 5901 5898 5896 5892 5890 5886 5883 5879 5875 5871 5866 5861 5856 5852 5849 5847 5843 5839 5834 5829 5823 5817 5810 5804 5797 5790 5782 5775 5769 5763 5755 5746 5737 5730 5721 5712 5704 5696 5688
5908 5906 5904 5902 5900 5897 5894 5891 5888 5885 5881 5878 5874 5870 5867 5861 5856 5851 5847 5846 5843 5839 5834 5829 5823 5817 5811 5804 5797 5789 5781 5774 5768 5763 5756 5748 5740 5732 5723 5713 5703 5692 5682 5673
5905 5903 5901 5899 5898 5895 5891 5887 5882 5879 5875 5872 5868 5863 5860 5855 5852 5849 5846 5843 5839 5835 5830 5825 5819 5811 5804 5796 5789 5781 5774 5768 5763 5757 5749 5741 5733 5723 5713 5703 5693 5681 5671 5662
5902 5900 5897 5896 5893 5890 5887 5882 5877 5873 5870 5866 5862 5860 5856 5852 5849 5846 5842 5840 5836 5831 5825 5819 5811 5804 5797 5790 5782 5775 5769 5763 5757 5751 5744 5736 5728 5717 5706 5696 5684 5673 5663 5657
5899 5896 5892 5890 5886 5884 5882 5878 5872 5868 5863 5861 5858 5854 5852 5847 5844 5841 5838 5835 5831 5826 5819 5812 5805 5798 5791 5783 5776 5769 5763 5758 5752 5746 5739 5731 5722 5712 5703 5691 5678 5668 5661 5655
5896 5892 5889 5885 5882 5880 5876 5872 5868 5861 5859 5856 5853 5850 5847 5843 5841 5837 5834 5831 5825 5820 5813 5805 5798 5792 5784 5776 5769 5763 5757 5752 5747 5742 5735 5728 5719 5710 5699 5688 5677 5668 5660 5655
5891 5889 5886 5882 5880 5877 5872 5866 5862 5858 5855 5852 5850 5846 5843 5840 5837 5834 5830 5825 5820 5813 5806 5799 5792 5784 5776 5769 5762 5757 5753 5749 5744 5738 5732 5725 5717 5709 5699 5688 5678 5669 5662 5658
5886 5881 5878 5874 5872 5869 5866 5862 5857 5853 5851 5848 5845 5842 5840 5837 5834 5830 5826 5820 5813 5807 5801 5793 5784 5776 5768 5763 5758 5754 5751 5747 5742 5736 5730 5724 5718 5709 5701 5692 5683 5674 5667 5662
5879 5877 5873 5869 5866 5863 5860 5855 5852 5850 5847 5844 5842 5840 5838 5835 5831 5827 5822 5816 5809 5803 5795 5786 5778 5769 5763 5758 5754 5751 5748 5745 5739 5734 5729 5724 5718 5710 5703 5696 5688 5681 5673 5667
5872 5870 5866 5864 5860 5857 5854 5850 5847 5845 5844 5841 5840 5839 5835 5832 5827 5823 5818 5811 5804 5797 5789 5780 5771 5763 5759 5755 5752 5749 5747 5743 5738 5734 5729 5725 5719 5713 5707 5701 5694 5688 5681 5675
5868 5863 5860 5857 5856 5852 5849 5846 5844 5842 5841 5840 5839 5836 5832 5828 5823 5819 5813 5807 5800 5792 5783 5774 5765 5760 5757 5754 5752 5749 5746 5742 5738 5734 5730 5726 5721 5715 5711 5706 5700 5694 5688 5683
5863 5860 5857 5855 5852 5849 5846 5843 5841 5840 5840 5838 5836 5833 5829 5826 5821 5815 5809 5802 5795 5787 5779 5770 5763 5759 5756 5754 5751 5749 5745 5742 5738 5735 5731 5727 5723 5719 5715 5711 5706 5700 5695 5691
5859 5855 5853 5851 5848 5846 5844 5841 5839 5838 5837 5836 5834 5831 5827 5823 5818 5812 5805 5798 5791 5783 5776 5769 5764 5760 5757 5755 5752 5749 5745 5742 5738 5736 5733 5729 5726 5723 5719 5715 5711 5707 5703 5699
5853 5851 5848 5845 5844 5843 5840 5839 5838 5835 5834 5833 5831 5827 5824 5819 5814 5808 5802 5796 5789 5782 5775 5769 5765 5762 5758 5755 5752 5749 5746 5742 5739 5737 5734 5731 5729 5726 5723 5720 5717 5713 5710 5707
5851 5849 5846 5843 5840 5838 5837 5836 5836 5835 5833 5831 5829 5826 5821 5817 5812 5805 5801 5795 5788 5781 5775 5770 5766 5763 5759 5756 5752 5749 5746 5743 5740 5739 5737 5734 5732 5729 5727 5724 5722 5719 5716 5714
5849 5846 5843 5841 5839 5839 5837 5837 5836 5834 5832 5829 5826 5822 5819 5814 5809 5804 5799 5794 5788 5780 5775 5771 5767 5764 5760 5757 5753 5750 5747 5744 5742 5741 5739 5737 5735 5732 5730 5728 5726 5723 5721 5720
5847 5843 5839 5839 5839 5839 5839 5837 5835 5833 5831 5827 5824 5820 5816 5812 5807 5802 5798 5792 5786 5781 5775 5770 5767 5764 5761 5758 5754 5751 5748 5745 5744 5743 5741 5739 5738 5736 5734 5732 5730 5728 5726 5725
5845 5844 5843 5841 5841 5840 5839 5837 5835 5832 5829 5825 5821 5818 5813 5809 5805 5801 5796 5790 5785 5780 5774 5769 5766 5764 5761 5758 5755 5752 5749 5746 5745 5744 5743 5741 5740 5738 5737 5735 5733 5732 5731 5730
5846 5844 5843 5842 5841 5840 5838 5835 5833 5830 5829 5823 5819 5814 5810 5807 5803 5798 5793 5788 5783 5777 5772 5768 5765 5763 5760 5757 5755 5752 5750 5748 5746 5745 5744 5743 5742 5740 5739 5738 5736 5735 5735 5734
5848 5846 5844 5842 5840 5839 5836 5834 5831 5828 5823 5819 5815 5811 5807 5803 5799 5794 5789 5785 5780 5776 5771 5766 5763 5761 5759 5756 5754 5752 5750 5748 5746 5745 5745 5744 5743 5741 5740 5739 5738 5738 5737 5736
5848 5846 5844 5843 5840 5836 5833 5830 5827 5823 5820 5816 5812 5808 5804 5800 5795 5790 5786 5781 5777 5773 5770 5765 5761 5758 5756 5754 5752 5750 5749 5747 5745 5745 5744 5744 5743 5742 5741 5740 5740 5739 5739 5738
5847 5845 5843 5841 5838 5834 5830 5827 5823 5819 5815 5812 5807 5803 5800 5796 5792 5787 5783 5778 5774 5770 5767 5763 5759 5756 5753 5751 5750 5748 5746 5745 5744 5743 5742 5742 5742 5741 5740 5740 5740 5740 5740 5739
5847 5844 5841 5838 5834 5831 5827 5823 5819 5814 5810 5806 5802 5798 5794 5790 5787 5783 5779 5775 5771 5767 5763 5760 5757 5753 5750 5748 5746 5744 5743 5742 5741 5741 5739 5739 5739 5739 5739 5739 5739 5739 5740 5739
5845 5843 5839 5834 5830 5826 5823 5818 5814 5810 5805 5801 5796 5792 5787 5783 5780 5777 5773 5770 5767 5763 5759 5756 5753 5750 5747 5745 5742 5740 5739 5738 5737 5736 5736 5736 5736 5736 5736 5736 5737 5737 5737 5737
Wind_Speed
9 12 11 10 8 10 16 16 18 23 30 34 34 32 32 30 33 31 27 27 21 19 17 23 26 30 32 35 37 40 43 43 42 39 36 35 36 37 40 44 46 46 45 45
7 10 11 10 14 15 18 19 22 26 32 32 35 37 32 31 33 29 27 23 17 18 21 26 29 32 34 36 38 41 40 40 37 34 32 34 37 40 41 43 45 44 44 46
9 12 14 12 14 19 18 22 23 29 33 36 39 35 30 33 31 27 25 18 18 22 26 28 32 34 35 37 39 39 38 36 31 30 33 38 40 41 44 45 44 44 45 47
9 9 12 15 17 22 20 26 32 34 37 39 37 30 31 30 27 24 21 19 21 27 29 31 33 35 36 38 38 36 34 32 28 30 35 37 37 40 41 39 42 45 46 42
16 15 17 16 18 27 30 35 38 29 36 41 33 31 28 26 25 19 18 24 24 29 30 32 34 36 38 38 36 36 32 30 28 32 35 35 38 40 38 41 43 43 38 34
12 14 19 23 27 30 31 37 37 37 41 38 31 27 25 22 19 15 22 22 24 28 31 34 36 37 37 36 35 34 30 26 27 31 31 33 36 36 38 40 37 29 27 22
19 24 27 26 25 26 28 33 39 44 40 30 25 24 19 20 16 19 21 22 25 29 33 35 36 36 36 37 36 32 27 24 27 26 30 31 34 34 36 35 30 27 23 18
23 29 29 30 32 35 35 38 39 32 28 27 23 21 19 16 17 19 20 23 28 32 34 35 36 36 38 37 35 28 23 22 23 25 28 30 31 31 34 35 32 24 21 14
28 31 33 30 32 32 37 32 28 26 26 24 20 17 15 15 18 18 22 27 32 35 36 36 37 39 39 35 28 22 19 20 20 24 25 27 28 28 33 37 33 27 20 13
32 35 34 36 38 37 27 28 25 24 22 18 16 12 12 16 19 21 26 30 34 36 36 38 41 41 34 27 20 17 17 18 20 21 22 25 25 26 31 34 34 31 22 15
37 37 38 37 33 25 24 22 22 18 15 13 10 11 14 16 19 23 28 31 35 36 37 41 41 35 25 18 15 14 16 18 20 19 22 23 22 25 28 30 32 32 29 23
37 36 33 27 25 23 21 20 16 13 10 8 9 13 15 17 21 26 29 33 36 34 39 40 37 28 16 14 11 12 14 18 18 19 20 20 21 24 26 27 28 29 29 28
29 28 27 25 23 20 15 12 11 6 5 8 12 15 17 20 24 27 30 33 32 36 39 37 33 17 12 10 10 13 15 15 18 18 17 16 19 22 23 24 25 26 26 27
24 22 21 20 18 13 12 7 8 8 8 10 13 17 19 21 24 28 31 30 34 37 35 33 21 12 10 9 11 12 14 15 17 17 14 15 18 19 21 23 24 26 26 26
23 22 20 18 13 9 9 7 8 11 10 10 14 17 20 23 26 29 27 31 35 34 31 24 15 11 9 11 12 12 13 15 15 14 11 13 17 18 20 22 24 26 27 28
22 21 20 17 16 14 11 6 15 10 8 11 15 19 21 23 26 26 27 31 35 30 27 19 13 10 12 13 11 13 13 14 12 11 9 13 16 18 19 21 22 24 25 26
17 16 18 15 16 14 9 10 6 8 11 15 17 19 20 22 25 25 26 31 33 28 22 14 11 13 14 11 12 13 13 11 10 8 9 13 15 16 17 18 19 20 21 22
18 20 17 15 14 4 4 4 7 12 14 15 18 21 22 22 25 25 24 26 31 28 20 12 12 15 14 11 13 11 12 10 8 6 9 12 13 14 15 15 17 18 19 19
17 19 14 4 2 9 6 8 12 15 16 18 21 21 21 22 24 26 25 24 27 29 21 12 13 15 16 12 13 10 12 10 6 5 7 10 12 12 13 13 15 17 19 21
14 15 14 13 6 6 7 12 14 17 18 20 20 20 22 21 23 24 26 26 25 25 22 14 13 14 15 12 13 9 11 7 4 2 5 8 10 11 12 13 15 17 18 19
15 13 12 11 10 10 12 15 16 18 20 21 23 23 23 22 22 24 25 25 23 23 22 16 12 13 13 12 12 9 9 5 2 3 4 6 8 9 10 11 14 15 15 16
11 10 11 12 13 14 15 16 19 22 23 24 24 23 23 23 24 25 25 24 23 22 20 16 12 12 12 12 9 9 8 5 1 3 5 5 6 6 6 9 10 12 14 15
10 12 13 14 15 17 19 21 22 23 23 24 25 25 24 25 25 26 26 24 21 19 18 18 13 11 10 11 10 8 7 5 2 5 6 6 6 6 6 7 9 10 11 13
11 13 15 18 20 22 24 24 23 23 24 25 25 27 24 24 24 27 27 24 21 18 17 18 16 12 10 10 11 8 7 8 5 6 8 8 8 7 7 8 10 10 11 11
13 16 19 22 24 24 24 26 26 26 27 27 27 28 27 25 24 23 25 24 21 20 19 18 16 14 12 12 11 10 9 8 8 8 11 12 11 10 9 8 12 14 13 12
20 21 22 23 24 26 25 24 25 27 28 29 29 30 31 30 29 27 24 23 23 21 20 19 17 15 14 13 13 11 10 10 9 9 11 14 14 14 13 12 12 15 16 16
Wind_Direction
231 223 250 293 286 307 315 316 330 336 331 334 336 333 336 336 332 331 332 334 332 325 313 308 311 311 313 314 314 312 310 311 310 307 304 303 303 300 299 299 297 296 292 291
215 260 305 321 317 323 321 326 318 321 327 326 327 327 332 332 329 327 329 325 328 328 317 314 316 316 315 313 313 312 312 313 311 306 305 305 305 306 306 305 305 302 298 298
277 285 288 290 301 304 306 305 310 319 318 317 325 325 327 327 324 323 321 317 321 321 318 320 319 317 316 315 314 314 315 314 308 307 310 312 313 314 314 312 310 308 306 302
265 285 278 302 305 294 294 314 312 309 312 324 324 320 321 323 323 323 309 311 321 324 320 320 318 318 315 315 316 317 318 316 310 312 313 317 317 316 317 315 319 317 310 304
305 302 305 293 314 310 308 304 301 316 317 320 322 320 329 322 321 315 308 310 307 317 318 316 317 319 319 319 323 322 320 314 309 313 321 322 323 324 325 326 324 319 317 315
338 317 299 303 300 300 304 305 316 317 313 316 314 315 322 316 313 301 303 313 315 318 319 319 322 321 320 323 324 323 317 312 313 321 325 327 331 335 333 333 331 334 339 338
325 330 327 304 298 307 312 310 313 313 312 314 314 313 310 309 305 307 315 321 322 321 319 323 323 322 322 322 322 320 315 311 318 327 331 333 340 341 338 345 352 352 352 355
313 314 316 318 314 311 312 311 308 306 307 311 313 311 306 303 310 314 320 322 324 322 325 326 324 323 321 320 318 313 311 318 326 334 335 339 348 349 349 5 6 2 4 6
302 305 305 304 304 306 312 310 308 302 303 309 308 301 305 310 313 321 326 327 325 326 327 326 324 323 323 319 318 311 318 327 333 341 341 349 356 358 5 10 15 16 18 47
299 304 304 304 309 313 312 304 300 302 308 310 311 304 311 320 325 327 327 328 327 327 327 326 325 326 324 324 322 322 331 335 344 347 351 359 1 13 14 16 23 26 35 51
297 297 298 305 312 313 308 300 303 304 309 310 307 312 325 329 328 327 328 328 327 328 329 328 328 329 329 329 332 335 339 344 352 356 1 5 11 25 23 21 26 35 41 50
299 303 306 311 313 310 309 309 314 322 327 319 323 332 333 331 329 331 328 329 329 330 333 332 331 336 334 337 340 344 347 354 3 6 9 7 21 30 32 32 31 35 46 53
305 310 314 318 318 321 317 314 309 326 312 332 337 333 331 332 331 331 332 332 332 337 337 337 340 347 350 352 349 350 356 6 9 12 15 19 35 39 40 41 42 44 45 52
315 318 317 314 314 316 320 302 302 296 315 331 336 333 331 331 335 335 336 339 343 340 342 346 357 6 1 357 355 1 2 11 10 17 15 38 50 50 52 53 53 55 57 58
313 313 316 322 311 314 321 323 317 308 301 323 334 329 332 337 339 340 345 349 347 345 349 355 2 3 7 358 2 3 4 10 11 19 28 55 64 64 64 64 65 66 66 68
314 318 327 335 325 319 315 323 326 317 310 335 332 337 338 339 343 348 351 352 350 350 355 355 4 11 360 357 9 2 6 9 17 22 55 75 76 74 72 71 71 72 74 75
327 332 343 322 322 305 295 316 319 335 333 336 332 332 337 341 345 352 351 351 353 354 358 6 8 359 355 1 3 5 12 15 25 39 84 88 83 77 73 73 75 75 75 77
340 331 317 320 324 325 50 32 336 333 334 331 333 338 339 337 346 346 345 348 356 356 354 352 354 358 358 359 358 17 15 27 37 72 98 94 85 81 78 76 79 81 80 81
343 348 352 353 1 29 32 354 339 335 334 334 337 337 337 337 341 344 340 345 349 354 353 347 348 348 355 354 359 15 19 41 53 96 107 99 90 85 79 75 80 84 86 87
1 9 31 46 65 21 348 337 337 336 334 330 328 332 335 332 334 337 339 339 342 344 350 346 344 346 350 350 353 1 16 36 67 107 123 106 97 90 86 90 94 94 94 92
31 29 24 22 18 360 345 338 334 329 328 330 332 332 327 325 329 334 337 340 343 343 348 344 334 338 347 349 346 347 5 13 65 156 156 128 110 99 98 101 103 102 100 99
23 20 17 6 358 349 341 334 330 328 326 326 325 324 325 327 330 331 334 336 340 341 344 341 328 327 337 343 335 341 346 3 319 191 193 156 129 115 108 118 119 116 114 110
19 3 355 352 344 338 330 328 326 326 324 324 321 321 325 325 326 329 333 332 334 336 342 344 332 321 319 333 330 328 317 332 253 211 209 192 174 155 144 150 142 138 131 129
356 350 344 337 333 331 326 325 321 319 317 317 319 320 323 323 325 325 328 327 325 323 323 337 337 322 311 317 318 300 302 304 285 230 218 214 205 191 182 180 173 166 157 148
343 338 334 330 328 325 322 318 317 314 313 316 316 316 317 319 319 318 319 320 320 317 316 316 327 329 311 304 308 295 283 281 294 262 232 220 219 215 208 203 197 190 187 182
333 332 328 325 324 324 323 319 314 313 312 312 312 313 314 314 314 312 311 313 313 315 311 312 310 316 321 304 298 295 270 273 278 286 261 241 228 225 221 217 214 212 209 208